FW6629 Weather Reports


Display with metric or nautical units.
time (UTC)temp
F
wind
direction
speed
MPH
gust
MPH
rain 1hr
in
rain 24hr
in
rain mn
in
humidity
%
barometer
mb
20260510234021 79 153 0.0 2.0 0.00 0.00 0.00 45 1015.4
20260510233526 79 152 0.0 2.0 0.00 0.00 0.00 43 1015.3
20260510233044 80 167 0.0 3.0 0.00 0.00 0.00 43 1015.3
20260510232520 80 156 1.0 3.0 0.00 0.00 0.00 42 1015.2
20260510232021 80 165 2.0 3.0 0.00 0.00 0.00 41 1015.2
20260510231538 80 190 1.0 4.0 0.00 0.00 0.00 40 1015.3
20260510231021 81 139 2.0 4.0 0.00 0.00 0.00 38 1015.3
20260510230522 81 143 2.0 4.0 0.00 0.00 0.00 37 1015.4
20260510230038 81 125 2.0 4.0 0.00 0.00 0.00 37 1015.4
20260510225525 82 104 3.0 4.0 0.00 0.00 0.00 35 1015.4
20260510225023 82 105 3.0 5.0 0.00 0.00 0.00 35 1015.4
20260510224539 82 160 3.0 5.0 0.00 0.00 0.00 35 1015.4
20260510224024 83 144 0.0 2.0 0.00 0.00 0.00 37 1015.4
20260510223523 83 145 1.0 2.0 0.00 0.00 0.00 35 1015.4
20260510223040 83 306 0.0 2.0 0.00 0.00 0.00 34 1015.4
20260510222526 83 290 1.0 3.0 0.00 0.00 0.00 35 1015.4
20260510222021 83 212 1.0 3.0 0.00 0.00 0.00 34 1015.4
20260510221543 83 169 1.0 4.0 0.00 0.00 0.00 34 1015.5
20260510221022 83 69 0.0 4.0 0.00 0.00 0.00 34 1015.4
20260510220522 83 67 2.0 4.0 0.00 0.00 0.00 35 1015.4
20260510220041 83 111 1.0 6.0 0.00 0.00 0.00 35 1015.5
20260510215522 84 167 1.0 6.0 0.00 0.00 0.00 36 1015.4
20260510215021 83 137 3.0 6.0 0.00 0.00 0.00 35 1015.4
20260510214540 83 131 2.0 7.0 0.00 0.00 0.00 34 1015.4
20260510214022 83 134 2.0 7.0 0.00 0.00 0.00 36 1015.4
20260510213524 83 114 2.0 7.0 0.00 0.00 0.00 34 1015.4
20260510213038 83 302 2.0 5.0 0.00 0.00 0.00 33 1015.5
20260510212521 84 308 0.0 5.0 0.00 0.00 0.00 34 1015.4
20260510212021 84 126 2.0 5.0 0.00 0.00 0.00 33 1015.6
20260510211544 84 121 0.0 4.0 0.00 0.00 0.00 35 1015.6
20260510211021 83 65 0.0 4.0 0.00 0.00 0.00 36 1015.6
20260510210522 83 124 1.0 4.0 0.00 0.00 0.00 34 1015.5
20260510210043 83 84 1.0 5.0 0.00 0.00 0.00 34 1015.5
20260510205521 83 27 1.0 5.0 0.00 0.00 0.00 34 1015.6
20260510205022 83 95 2.0 5.0 0.00 0.00 0.00 37 1015.6
20260510204551 83 107 1.0 7.0 0.00 0.00 0.00 32 1015.6
20260510204024 84 55 1.0 9.0 0.00 0.00 0.00 36 1015.6
20260510203521 83 57 4.0 9.0 0.00 0.00 0.00 38 1015.6
20260510203037 83 138 4.0 9.0 0.00 0.00 0.00 37 1015.6
20260510202521 83 142 3.0 9.0 0.00 0.00 0.00 37 1015.7
20260510202021 83 104 4.0 9.0 0.00 0.00 0.00 36 1015.7
20260510201536 83 129 2.0 6.0 0.00 0.00 0.00 36 1015.8
20260510201021 83 306 1.0 6.0 0.00 0.00 0.00 35 1015.8
20260510200522 83 9 2.0 6.0 0.00 0.00 0.00 34 1015.9
20260510200038 83 318 3.0 7.0 0.00 0.00 0.00 38 1015.9
20260510195522 83 303 3.0 7.0 0.00 0.00 0.00 38 1016.1
20260510195022 83 293 3.0 7.0 0.00 0.00 0.00 38 1016.1
20260510194559 82 31 2.0 7.0 0.00 0.00 0.00 36 1016.1
20260510194021 83 181 2.0 6.0 0.00 0.00 0.00 38 1016.1
20260510193524 83 296 2.0 8.0 0.00 0.00 0.00 35 1016.1
20260510193043 83 270 2.0 9.0 0.00 0.00 0.00 37 1016.1
20260510192527 84 304 3.0 9.0 0.00 0.00 0.00 37 1016.2
20260510192022 84 14 0.0 5.0 0.00 0.00 0.00 39 1016.2
20260510191540 83 56 1.0 7.0 0.00 0.00 0.00 38 1016.4
20260510191021 83 27 1.0 7.0 0.00 0.00 0.00 37 1016.4
20260510190522 82 100 2.0 6.0 0.00 0.00 0.00 40 1016.4
20260510190048 82 117 1.0 4.0 0.00 0.00 0.00 38 1016.5
20260510185521 83 226 2.0 4.0 0.00 0.00 0.00 39 1016.5
20260510185022 82 288 2.0 4.0 0.00 0.00 0.00 39 1016.6
20260510184537 82 339 0.0 3.0 0.00 0.00 0.00 37 1016.7
20260510184022 82 357 1.0 4.0 0.00 0.00 0.00 39 1016.7
20260510183524 82 54 1.0 6.0 0.00 0.00 0.00 42 1016.8
20260510183037 82 82 1.0 6.0 0.00 0.00 0.00 37 1016.8
20260510182521 82 331 2.0 6.0 0.00 0.00 0.00 37 1016.8
20260510182026 82 286 2.0 6.0 0.00 0.00 0.00 37 1016.7
20260510181541 82 18 0.0 4.0 0.00 0.00 0.00 38 1016.7
20260510181021 82 1 1.0 4.0 0.00 0.00 0.00 37 1016.7
20260510180524 82 142 1.0 5.0 0.00 0.00 0.00 37 1016.7
20260510180040 82 52 1.0 8.0 0.00 0.00 0.00 37 1016.9
20260510175521 81 19 4.0 8.0 0.00 0.00 0.00 40 1016.8
20260510175022 81 181 2.0 6.0 0.00 0.00 0.00 42 1016.9
20260510174540 81 111 1.0 7.0 0.00 0.00 0.00 42 1016.9
20260510174021 81 106 2.0 8.0 0.00 0.00 0.00 45 1017.0
20260510173521 80 102 4.0 8.0 0.00 0.00 0.00 41 1017.0
20260510173036 80 103 4.0 8.0 0.00 0.00 0.00 40 1017.1
20260510172521 81 100 3.0 8.0 0.00 0.00 0.00 40 1017.2
20260510172022 80 103 3.0 7.0 0.00 0.00 0.00 43 1017.2
20260510171537 81 52 1.0 5.0 0.00 0.00 0.00 46 1017.2
20260510171024 80 346 1.0 5.0 0.00 0.00 0.00 46 1017.1
20260510170521 80 75 2.0 4.0 0.00 0.00 0.00 45 1017.2
20260510170041 80 292 1.0 4.0 0.00 0.00 0.00 44 1017.1
20260510165522 79 14 2.0 5.0 0.00 0.00 0.00 40 1017.2
20260510165023 79 307 3.0 5.0 0.00 0.00 0.00 40 1017.2
20260510164550 79 10 1.0 3.0 0.00 0.00 0.00 47 1017.3
20260510164020 79 65 1.0 3.0 0.00 0.00 0.00 47 1017.4
20260510163522 79 0 1.0 3.0 0.00 0.00 0.00 47 1017.4
20260510163041 78 0 1.0 4.0 0.00 0.00 0.00 49 1017.4
20260510162522 79 109 1.0 4.0 0.00 0.00 0.00 45 1017.3
20260510162021 78 108 1.0 4.0 0.00 0.00 0.00 50 1017.3
20260510161537 78 306 1.0 4.0 0.00 0.00 0.00 54 1017.2
20260510161026 79 73 1.0 4.0 0.00 0.00 0.00 51 1017.3
20260510160524 79 120 1.0 4.0 0.00 0.00 0.00 53 1017.3
20260510160037 78 102 1.0 6.0 0.00 0.00 0.00 57 1017.3
20260510155521 78 25 1.0 6.0 0.00 0.00 0.00 52 1017.2
20260510155021 78 79 1.0 4.0 0.00 0.00 0.00 56 1017.2
20260510154547 78 0 0.0 5.0 0.00 0.00 0.00 57 1017.3
20260510154020 78 58 2.0 5.0 0.00 0.00 0.00 58 1017.3
20260510153521 77 153 0.0 5.0 0.00 0.00 0.00 62 1017.3
20260510153041 77 108 2.0 5.0 0.00 0.00 0.00 62 1017.3
20260510152524 76 106 2.0 5.0 0.00 0.00 0.00 67 1017.2
20260510152021 76 65 2.0 5.0 0.00 0.00 0.00 67 1017.3
20260510151549 76 121 2.0 5.0 0.00 0.00 0.00 70 1017.4
20260510151023 75 202 2.0 5.0 0.00 0.00 0.00 70 1017.4
20260510150521 75 85 1.0 5.0 0.00 0.00 0.00 71 1017.3
20260510150051 74 144 1.0 4.0 0.00 0.00 0.00 72 1017.4
20260510145526 74 356 1.0 4.0 0.00 0.00 0.00 73 1017.4
20260510145023 73 156 1.0 4.0 0.00 0.00 0.00 74 1017.3
20260510144553 73 0 0.0 4.0 0.00 0.00 0.00 76 1017.4
20260510144023 72 120 2.0 4.0 0.00 0.00 0.00 77 1017.4
20260510143524 71 132 1.0 3.0 0.00 0.00 0.00 80 1017.4
20260510143036 70 94 1.0 2.0 0.00 0.00 0.00 81 1017.4
20260510142521 69 157 1.0 2.0 0.00 0.00 0.00 84 1017.4
20260510142023 68 88 1.0 2.0 0.00 0.00 0.00 87 1017.4
20260510141538 67 63 0.0 2.0 0.00 0.00 0.00 89 1017.3
20260510141023 66 71 0.0 3.0 0.00 0.00 0.00 91 1017.4
20260510140527 65 305 1.0 3.0 0.00 0.00 0.00 91 1017.3
20260510140046 65 4 1.0 3.0 0.00 0.00 0.00 91 1017.3
20260510135521 64 23 0.0 2.0 0.00 0.00 0.00 92 1017.3
20260510135021 64 0 0.0 2.0 0.00 0.00 0.00 92 1017.3
20260510134547 63 0 1.0 2.0 0.00 0.00 0.00 92 1017.3
20260510134025 63 285 0.0 2.0 0.00 0.00 0.00 92 1017.3
20260510133523 62 352 1.0 2.0 0.00 0.00 0.00 92 1017.3
20260510133044 62 0 1.0 2.0 0.00 0.00 0.00 92 1017.3
20260510132524 62 0 0.0 2.0 0.00 0.00 0.00 92 1017.2
20260510132023 61 0 0.0 2.0 0.00 0.00 0.00 92 1017.2
20260510131540 61 62 0.0 2.0 0.00 0.00 0.00 92 1017.1
20260510131025 60 85 0.0 2.0 0.00 0.00 0.00 92 1017.0
20260510130521 59 0 0.0 2.0 0.00 0.00 0.00 92 1017.1
20260510130045 59 0 0.0 2.0 0.00 0.00 0.00 92 1017.1
20260510125522 58 2 0.0 2.0 0.00 0.00 0.00 92 1017.1
20260510125024 58 356 1.0 2.0 0.00 0.00 0.00 92 1017.1
20260510124542 57 23 0.0 2.0 0.00 0.00 0.00 92 1017.2
20260510124024 57 43 0.0 2.0 0.00 0.00 0.00 92 1017.0
20260510123521 56 0 0.0 2.0 0.00 0.00 0.00 92 1016.9
20260510123044 56 0 0.0 2.0 0.00 0.00 0.00 92 1016.9
20260510122523 55 0 0.0 2.0 0.00 0.00 0.00 91 1016.8
20260510122023 55 157 0.0 2.0 0.00 0.00 0.00 92 1016.9
20260510121542 55 153 0.0 2.0 0.00 0.00 0.00 91 1016.9
20260510121024 54 133 0.0 2.0 0.00 0.00 0.00 91 1016.8
20260510120521 54 0 0.0 2.0 0.00 0.00 0.00 91 1016.9
20260510120047 54 0 0.0 2.0 0.00 0.00 0.00 91 1016.8
20260510115521 53 158 0.0 2.0 0.00 0.00 0.00 91 1016.8
20260510115024 53 0 0.0 2.0 0.00 0.00 0.00 91 1016.7
20260510114605 53 67 0.0 2.0 0.00 0.00 0.00 91 1016.7
20260510114022 53 0 0.0 2.0 0.00 0.00 0.00 91 1016.7
20260510113523 53 67 0.0 2.0 0.00 0.00 0.00 91 1016.4
20260510113054 53 0 0.0 2.0 0.00 0.00 0.00 91 1016.4
20260510112521 53 0 0.0 2.0 0.00 0.00 0.00 91 1016.3
20260510112021 52 0 0.0 0.0 0.00 0.00 0.00 91 1016.2
20260510111543 52 0 0.0 0.0 0.00 0.00 0.00 91 1016.1
20260510111021 52 0 0.0 2.0 0.00 0.00 0.00 91 1016.0
20260510110524 52 0 0.0 2.0 0.00 0.00 0.00 91 1016.0
20260510110042 52 0 0.0 2.0 0.00 0.00 0.00 91 1015.9
20260510105521 52 0 0.0 0.0 0.00 0.00 0.00 90 1015.7
20260510105022 52 0 0.0 0.0 0.00 0.00 0.00 90 1015.7
20260510104548 52 0 0.0 0.0 0.00 0.00 0.00 90 1015.4
20260510104023 52 0 0.0 0.0 0.00 0.00 0.00 90 1015.4
20260510103523 52 0 0.0 0.0 0.00 0.00 0.00 90 1015.3
20260510103047 52 0 0.0 1.0 0.00 0.00 0.00 90 1015.2
20260510102524 52 0 0.0 2.0 0.00 0.00 0.00 90 1015.2
20260510102023 52 65 1.0 2.0 0.00 0.00 0.00 90 1015.3
20260510101536 52 11 0.0 2.0 0.00 0.00 0.00 90 1015.2
20260510101026 52 0 0.0 2.0 0.00 0.00 0.00 90 1015.2
20260510100521 53 0 0.0 2.0 0.00 0.00 0.00 90 1015.2
20260510100057 53 0 0.0 0.0 0.00 0.00 0.00 90 1015.2
20260510095523 53 0 0.0 1.0 0.00 0.00 0.00 90 1015.2
20260510095024 53 0 0.0 1.0 0.00 0.00 0.00 90 1015.0
20260510094550 53 11 0.0 2.0 0.00 0.00 0.00 90 1015.0
20260510094021 53 11 0.0 2.0 0.00 0.00 0.00 90 1015.1
20260510093525 53 0 0.0 2.0 0.00 0.00 0.00 90 1014.9
20260510093041 53 39 0.0 2.0 0.00 0.00 0.00 90 1014.7
20260510092524 53 0 0.0 0.0 0.00 0.00 0.00 90 1014.8
20260510092024 53 0 0.0 0.0 0.00 0.00 0.00 90 1014.8
20260510091537 53 0 0.0 2.0 0.00 0.00 0.00 90 1014.8
20260510091026 53 0 0.0 2.0 0.00 0.00 0.00 90 1014.8
20260510090521 53 0 0.0 2.0 0.00 0.00 0.00 90 1014.7
20260510090040 53 0 0.0 2.0 0.00 0.00 0.00 90 1014.8
20260510085523 54 0 0.0 2.0 0.00 0.00 0.00 90 1014.7
20260510085023 54 0 0.0 2.0 0.00 0.00 0.00 90 1014.5
20260510084536 54 0 0.0 2.0 0.00 0.00 0.00 90 1014.6
20260510084021 54 0 0.0 2.0 0.00 0.00 0.00 90 1014.4
20260510083523 54 0 0.0 0.0 0.00 0.00 0.00 90 1014.3
20260510083044 54 0 0.0 1.0 0.00 0.00 0.00 90 1014.2
20260510082524 54 0 0.0 1.0 0.00 0.00 0.00 90 1014.1
20260510082021 54 113 0.0 1.0 0.00 0.00 0.00 90 1014.1
20260510081541 54 113 0.0 1.0 0.00 0.00 0.00 89 1014.1
20260510081021 54 0 0.0 0.0 0.00 0.00 0.00 89 1014.1
20260510080523 55 0 0.0 0.0 0.00 0.00 0.00 89 1013.9
20260510080041 55 0 0.0 2.0 0.00 0.00 0.00 90 1013.9
20260510075520 55 0 0.0 2.0 0.00 0.00 0.00 90 1013.9
20260510075021 55 113 0.0 2.0 0.00 0.00 0.00 89 1013.9
20260510074542 55 0 0.0 2.0 0.00 0.00 0.00 89 1013.8
20260510074026 55 0 0.0 2.0 0.00 0.00 0.00 89 1013.8
20260510073523 55 113 0.0 2.0 0.00 0.00 0.00 90 1013.8
20260510073039 55 0 0.0 2.0 0.00 0.00 0.00 90 1013.8
20260510072524 56 0 0.0 0.0 0.00 0.00 0.00 89 1013.8
20260510072028 56 0 0.0 0.0 0.00 0.00 0.00 89 1013.8
20260510071537 56 0 0.0 2.0 0.00 0.00 0.00 89 1013.9
20260510071021 56 0 0.0 2.0 0.00 0.00 0.00 90 1013.8
20260510070523 56 0 0.0 2.0 0.00 0.00 0.00 90 1013.9
20260510070058 56 113 0.0 2.0 0.00 0.00 0.00 89 1013.9
20260510065521 56 0 0.0 2.0 0.00 0.00 0.00 89 1013.9
20260510065023 56 113 1.0 2.0 0.00 0.00 0.00 89 1014.0
20260510064546 57 0 0.0 2.0 0.00 0.00 0.00 89 1013.8
20260510064024 57 0 0.0 0.0 0.00 0.00 0.00 89 1013.8
20260510063521 57 0 0.0 2.0 0.00 0.00 0.00 89 1013.8
20260510063043 57 0 0.0 2.0 0.00 0.00 0.00 89 1013.8
20260510062523 57 0 0.0 2.0 0.00 0.00 0.00 89 1013.7
20260510062023 57 2 1.0 1.0 0.00 0.00 0.00 89 1013.8
20260510061538 57 2 0.0 1.0 0.00 0.00 0.00 89 1013.7
20260510061024 57 2 1.0 1.0 0.00 0.00 0.00 89 1013.7
20260510060524 58 85 0.0 2.0 0.00 0.00 0.00 89 1013.7
20260510060048 58 0 0.0 2.0 0.00 0.00 0.00 89 1013.7
20260510055523 58 0 0.0 2.0 0.00 0.00 0.00 89 1013.8
20260510055024 58 128 1.0 2.0 0.00 0.00 0.00 89 1013.8
20260510054538 58 0 0.0 2.0 0.00 0.00 0.00 89 1013.8
20260510054024 58 128 0.0 2.0 0.00 0.00 0.00 89 1013.8
20260510053521 58 128 0.0 2.0 0.00 0.00 0.00 89 1013.8
20260510053043 59 0 0.0 2.0 0.00 0.00 0.00 89 1013.7
20260510052521 59 141 0.0 2.0 0.00 0.00 0.00 89 1013.8
20260510052021 59 0 0.0 1.0 0.00 0.00 0.00 89 1013.7
20260510051541 59 141 0.0 2.0 0.00 0.00 0.00 89 1013.8
20260510051022 59 0 0.0 2.0 0.00 0.00 0.00 89 1013.8
20260510050522 59 138 1.0 2.0 0.00 0.00 0.00 89 1014.0
20260510050040 59 0 0.0 2.0 0.00 0.00 0.00 89 1014.0
20260510045526 59 164 0.0 2.0 0.00 0.00 0.00 89 1014.0
20260510045024 59 125 1.0 2.0 0.00 0.00 0.00 89 1014.0
20260510044538 59 123 1.0 2.0 0.00 0.00 0.00 88 1014.0
20260510044023 59 144 0.0 2.0 0.00 0.00 0.00 88 1014.0
20260510043522 60 187 0.0 2.0 0.00 0.00 0.00 88 1014.1
20260510043047 60 0 1.0 2.0 0.00 0.00 0.00 88 1014.1
20260510042524 60 107 1.0 2.0 0.00 0.00 0.00 88 1014.1
20260510042024 60 125 1.0 2.0 0.00 0.00 0.00 87 1014.1
20260510041550 60 189 0.0 2.0 0.00 0.00 0.00 87 1014.1
20260510041021 60 194 0.0 2.0 0.00 0.00 0.00 87 1014.1
20260510040521 60 0 0.0 2.0 0.00 0.00 0.00 87 1014.1
20260510040042 60 115 1.0 2.0 0.00 0.00 0.00 86 1014.1
20260510035523 61 115 0.0 2.0 0.00 0.00 0.00 85 1014.1
20260510035026 61 0 0.0 1.0 0.00 0.00 0.00 85 1014.0
20260510034541 61 115 0.0 2.0 0.00 0.00 0.00 85 1014.0
20260510034023 61 115 0.0 2.0 0.00 0.00 0.00 84 1014.0
20260510033522 61 0 0.0 0.0 0.00 0.00 0.00 83 1014.0
20260510033107 62 0 0.0 1.0 0.00 0.00 0.00 83 1014.1
20260510032522 62 0 0.0 1.0 0.00 0.00 0.00 82 1014.1
20260510032022 62 0 0.0 0.0 0.00 0.00 0.00 82 1014.1
20260510031558 62 0 0.0 0.0 0.00 0.00 0.00 82 1014.1
20260510031023 63 0 0.0 1.0 0.00 0.00 0.00 81 1014.0
20260510030523 63 0 0.0 1.0 0.00 0.00 0.00 81 1013.9
20260510030045 63 0 0.0 1.0 0.00 0.00 0.00 80 1014.0
20260510025526 63 0 0.0 2.0 0.00 0.00 0.00 81 1013.9
20260510025024 64 115 0.0 2.0 0.00 0.00 0.00 80 1013.8
20260510024545 64 115 0.0 1.0 0.00 0.00 0.00 80 1013.6
20260510024021 64 0 0.0 2.0 0.00 0.00 0.00 80 1013.5
20260510023523 64 0 0.0 2.0 0.00 0.00 0.00 79 1013.5
20260510023038 65 0 0.0 2.0 0.00 0.00 0.00 78 1013.4
20260510022523 65 115 0.0 1.0 0.00 0.00 0.00 77 1013.4
20260510022020 65 115 0.0 2.0 0.00 0.00 0.00 77 1013.4
20260510021540 65 115 0.0 2.0 0.00 0.00 0.00 77 1013.4
20260510021022 66 115 0.0 2.0 0.00 0.00 0.00 76 1013.3
20260510020524 66 115 0.0 2.0 0.00 0.00 0.00 76 1013.1
20260510020048 66 0 0.0 3.0 0.00 0.00 0.00 75 1013.0
20260510015523 66 0 0.0 3.0 0.00 0.00 0.00 76 1013.0
20260510015023 66 122 1.0 3.0 0.00 0.00 0.00 75 1013.0
20260510014538 67 100 1.0 2.0 0.00 0.00 0.00 74 1012.9
20260510014025 67 104 1.0 2.0 0.00 0.00 0.00 74 1012.8
20260510013524 67 0 0.0 2.0 0.00 0.00 0.00 74 1012.7
20260510013040 67 127 0.0 2.0 0.00 0.00 0.00 73 1012.7
20260510012523 68 127 1.0 2.0 0.00 0.00 0.00 73 1012.6
20260510012021 68 102 1.0 2.0 0.00 0.00 0.00 73 1012.4
20260510011544 68 102 1.0 2.0 0.00 0.00 0.00 71 1012.3
20260510011024 69 205 0.0 2.0 0.00 0.00 0.00 69 1012.4
20260510010523 69 200 0.0 2.0 0.00 0.00 0.00 68 1012.2
20260510010049 69 208 0.0 2.0 0.00 0.00 0.00 68 1012.2
20260510005524 70 199 0.0 2.0 0.00 0.00 0.00 68 1012.2
20260510005023 70 0 0.0 2.0 0.00 0.00 0.00 67 1011.9
20260510004541 70 162 0.0 2.0 0.00 0.00 0.00 67 1012.0
20260510004023 71 0 0.0 2.0 0.00 0.00 0.00 66 1012.0
20260510003525 71 200 0.0 2.0 0.00 0.00 0.00 66 1011.9
20260510003058 71 200 0.0 2.0 0.00 0.00 0.00 66 1011.8
20260510002524 71 0 1.0 3.0 0.00 0.00 0.00 65 1011.8
20260510002023 71 112 0.0 3.0 0.00 0.00 0.00 64 1011.7
20260510001542 72 124 0.0 2.0 0.00 0.00 0.00 64 1011.6
20260510001023 72 246 0.0 2.0 0.00 0.00 0.00 64 1011.5
20260510000524 72 289 0.0 3.0 0.00 0.00 0.00 64 1011.4
20260510000052 72 316 0.0 4.0 0.00 0.00 0.00 64 1011.4
20260509235522 72 349 1.0 8.0 0.00 0.00 0.00 64 1011.3
20260509235030 73 304 3.0 8.0 0.00 0.00 0.00 64 1011.5
20260509234558 73 300 3.0 5.0 0.00 0.00 0.00 64 1011.5